{"data":{"norad_id":48023,"intl_designator":"2021-024AY","name":"STARLINK-2292","alt_names":[],"object_type":"PAYLOAD","status":"ACTIVE","operator":null,"country":"US","launch_date":"2021-03-24","launch_site_code":"AFETR","launch_vehicle":null,"mission":null,"orbit_class":"UNKNOWN","rcs_meters":null,"size_class":null,"mass_kg":null,"dimensions":null,"purposes":["comms"],"wikipedia_slug":null,"has_3d_model":false,"image_url":null,"decayed_at":null,"tle_current":{"epoch":"2026-09-20T04:06:58.197888Z","epoch_age_seconds":57613,"freshness":"FRESH","line1":"1 48023U 21024AY  26263.17150692  .00061692  00000+0  96672-3 0  9992","line2":"2 48023  53.1118 130.3696 0001782 210.0258 150.0651 15.53152812304640","mean_motion":15.53152812,"eccentricity":0.0001782,"inclination_deg":53.1118,"raan_deg":130.3696,"arg_perigee_deg":210.0258,"mean_anomaly_deg":150.0651,"bstar":0.00096672,"rev_number":30464,"period_min":92.714637534327,"perigee_km":406.31829253116,"apogee_km":408.73670335823,"semimajor_km":6785.6644979447,"source":"CELESTRAK","updated_at":"2026-09-20T09:00:38.760604Z"}}}